CW9154 Weather Reports


Display with metric or nautical units.
time (UTC)temp
F
wind
direction
speed
MPH
gust
MPH
rain 1hr
in
rain 24hr
in
rain mn
in
humidity
%
barometer
mb
20240530023121 78 175 1.0 0.0 0.00 0.00 0.26 75 1014.7
20240530022632 78 166 1.0 0.0 0.00 0.00 0.26 75 1014.5
20240530021114 79 152 2.0 0.0 0.00 0.00 0.26 74 1014.5
20240530020600 79 153 2.0 0.0 0.00 0.00 0.26 73 1014.6
20240530020115 79 150 2.0 0.0 0.00 0.00 0.26 73 1014.6
20240530015600 79 172 2.0 0.0 0.00 0.00 0.26 72 1014.5
20240530015056 80 159 2.0 0.0 0.00 0.00 0.26 72 1014.6
20240530014115 80 167 2.0 0.0 0.00 0.00 0.26 71 1014.6
20240530013606 80 111 1.0 0.0 0.00 0.00 0.26 70 1014.7
20240530013058 81 140 1.0 0.0 0.00 0.00 0.26 70 1014.6
20240530012611 81 165 2.0 0.0 0.00 0.00 0.26 69 1014.6
20240530012025 81 68 1.0 0.0 0.00 0.00 0.26 69 1014.8
20240530011543 82 169 0.0 0.0 0.00 0.00 0.26 68 1014.8
20240530010626 82 182 1.0 0.0 0.00 0.00 0.26 68 1014.8
20240530010101 82 161 1.0 0.0 0.00 0.00 0.26 67 1014.8
20240530005115 83 180 1.0 0.0 0.00 0.00 0.26 66 1014.8
20240530004538 83 115 2.0 0.0 0.00 0.00 0.26 65 1014.8
20240530004055 83 85 3.0 0.0 0.00 0.00 0.26 65 1014.8
20240530003031 83 130 3.0 0.0 0.00 0.00 0.26 64 1014.8
20240530002539 84 161 4.0 0.0 0.00 0.00 0.26 63 1014.8
20240530002048 84 184 4.0 0.0 0.00 0.00 0.26 62 1014.8
20240530001530 84 94 4.0 0.0 0.00 0.00 0.26 62 1014.8
20240530001034 84 121 4.0 0.0 0.00 0.00 0.26 61 1014.9
20240530000638 84 107 5.0 0.0 0.00 0.00 0.26 62 1015.1
20240530000056 84 84 5.0 0.0 0.00 0.00 0.26 61 1015.1
20240529235557 84 97 4.0 0.0 0.00 0.00 0.26 61 1015.0
20240529234534 84 94 5.0 0.0 0.00 0.00 0.26 60 1015.1
20240529234054 84 73 5.0 0.0 0.00 0.00 0.26 60 1015.1
20240529233603 84 103 6.0 0.0 0.00 0.00 0.26 59 1015.1
20240529233040 85 90 5.0 0.0 0.00 0.00 0.26 60 1015.3
20240529232525 85 90 4.0 0.0 0.00 0.00 0.26 58 1015.3
20240529232123 85 96 3.0 0.0 0.00 0.00 0.26 60 1015.3
20240529231554 85 136 3.0 0.0 0.00 0.00 0.26 60 1015.4
20240529231038 85 26 3.0 0.0 0.00 0.00 0.26 60 1015.4
20240529230623 85 90 3.0 0.0 0.00 0.00 0.26 60 1015.4
20240529225527 84 158 4.0 0.0 0.00 0.00 0.26 60 1015.5
20240529225027 84 176 4.0 0.0 0.00 0.00 0.26 60 1015.6
20240529224605 84 83 5.0 0.0 0.00 0.00 0.26 61 1015.7
20240529224030 84 78 5.0 0.0 0.00 0.00 0.26 60 1015.7
20240529223548 85 86 4.0 0.0 0.00 0.00 0.26 60 1015.6
20240529223057 85 148 4.0 0.0 0.00 0.00 0.26 60 1015.6
20240529222634 85 121 5.0 0.0 0.00 0.00 0.26 60 1015.7
20240529222114 85 184 4.0 0.0 0.00 0.00 0.26 60 1015.5
20240529221609 85 98 4.0 0.0 0.00 0.00 0.26 57 1015.5
20240529221118 85 26 5.0 0.0 0.00 0.00 0.26 58 1015.6
20240529220608 85 109 5.0 0.0 0.00 0.00 0.26 58 1015.6
20240529220101 85 88 6.0 0.0 0.00 0.00 0.26 57 1015.6
20240529215555 86 63 5.0 0.0 0.00 0.00 0.26 55 1015.7
20240529215055 87 121 3.0 0.0 0.00 0.00 0.26 56 1015.6
20240529214534 86 109 4.0 0.0 0.00 0.00 0.26 57 1015.8
20240529214054 86 173 4.0 0.0 0.00 0.00 0.26 57 1015.8
20240529213600 86 91 3.0 0.0 0.00 0.00 0.26 57 1015.8
20240529213108 85 166 4.0 0.0 0.00 0.00 0.26 59 1015.8
20240529212604 85 90 5.0 0.0 0.00 0.00 0.26 59 1015.8
20240529212120 84 118 5.0 0.0 0.00 0.00 0.26 58 1015.8
20240529211603 84 51 5.0 0.0 0.00 0.00 0.26 59 1016.0
20240529211100 84 81 4.0 0.0 0.00 0.00 0.26 60 1016.1
20240529210620 84 66 5.0 0.0 0.00 0.00 0.26 62 1016.1
20240529210059 84 75 6.0 0.0 0.00 0.00 0.26 59 1016.0
20240529205542 85 66 5.0 0.0 0.00 0.00 0.26 57 1016.1
20240529205045 85 88 4.0 0.0 0.00 0.00 0.26 59 1016.1
20240529204544 84 56 6.0 0.0 0.00 0.00 0.26 58 1016.2
20240529204050 84 76 4.0 0.0 0.00 0.00 0.26 57 1016.3
20240529203646 85 67 3.0 0.0 0.00 0.00 0.26 58 1016.3
20240529203234 84 50 3.0 0.0 0.00 0.00 0.26 58 1016.3
20240529202622 84 71 5.0 0.0 0.00 0.00 0.26 60 1016.4
20240529202123 84 69 6.0 0.0 0.00 0.00 0.26 58 1016.3
20240529201128 84 86 3.0 0.0 0.00 0.00 0.26 61 1016.4
20240529200621 83 109 4.0 0.0 0.00 0.00 0.26 61 1016.5
20240529200103 83 75 5.0 0.0 0.00 0.00 0.26 60 1016.6
20240529195607 83 96 6.0 0.0 0.00 0.00 0.26 60 1016.6
20240529195121 83 61 5.0 0.0 0.00 0.00 0.26 61 1016.7
20240529194610 83 74 4.0 0.0 0.00 0.00 0.26 61 1016.7
20240529193622 83 63 6.0 0.0 0.00 0.00 0.26 62 1016.8
20240529193058 83 98 6.0 0.0 0.00 0.00 0.26 60 1016.9
20240529192604 84 70 3.0 0.0 0.00 0.00 0.26 61 1016.9
20240529192035 83 34 4.0 0.0 0.00 0.00 0.26 62 1016.8
20240529191635 83 73 5.0 0.0 0.00 0.00 0.26 60 1017.0
20240529191108 84 94 3.0 0.0 0.00 0.00 0.26 59 1017.0
20240529190617 83 129 3.0 0.0 0.00 0.00 0.26 62 1017.1
20240529190144 83 88 5.0 0.0 0.00 0.00 0.26 61 1017.0
20240529185621 83 69 5.0 0.0 0.00 0.00 0.26 62 1017.2
20240529185101 83 95 4.0 0.0 0.00 0.00 0.26 60 1017.2
20240529184614 83 29 4.0 0.0 0.00 0.00 0.26 60 1017.2
20240529184052 82 65 4.0 0.0 0.00 0.00 0.26 62 1017.2
20240529183547 82 78 5.0 0.0 0.00 0.00 0.26 62 1017.3
20240529183039 82 32 5.0 0.0 0.00 0.00 0.26 61 1017.4
20240529182555 82 57 4.0 0.0 0.00 0.00 0.26 63 1017.4
20240529182107 82 74 5.0 0.0 0.00 0.00 0.26 63 1017.4
20240529181606 82 80 5.0 0.0 0.00 0.00 0.26 63 1017.4
20240529181046 82 57 6.0 0.0 0.00 0.00 0.26 63 1017.3
20240529180543 82 17 5.0 0.0 0.00 0.00 0.26 63 1017.4
20240529180127 82 54 5.0 0.0 0.00 0.00 0.26 67 1017.4
20240529175617 82 24 6.0 0.0 0.00 0.00 0.26 68 1017.5
20240529175051 81 76 5.0 0.0 0.00 0.00 0.26 65 1017.5
20240529174629 81 61 5.0 0.0 0.00 0.00 0.26 66 1017.6
20240529174105 81 71 6.0 0.0 0.00 0.00 0.26 61 1017.7
20240529173543 81 49 7.0 0.0 0.00 0.00 0.26 62 1017.8
20240529173038 81 62 8.0 0.0 0.00 0.00 0.26 65 1017.8
20240529172549 81 60 7.0 0.0 0.00 0.00 0.26 62 1018.0
20240529172035 81 59 6.0 0.0 0.00 0.00 0.26 63 1017.9
20240529171626 81 76 5.0 0.0 0.00 0.00 0.26 60 1017.9
20240529171116 81 49 6.0 0.0 0.00 0.00 0.26 62 1017.9
20240529170614 81 355 8.0 0.0 0.00 0.00 0.26 63 1018.0
20240529170054 81 55 6.0 0.0 0.00 0.00 0.26 61 1018.1
20240529165636 81 54 6.0 0.0 0.00 0.00 0.26 63 1018.2
20240529165106 81 28 7.0 0.0 0.00 0.00 0.26 63 1018.3
20240529164624 80 68 7.0 0.0 0.00 0.00 0.26 63 1018.2
20240529164037 81 61 6.0 0.0 0.00 0.00 0.26 62 1018.2
20240529163533 80 346 5.0 0.0 0.00 0.00 0.26 64 1018.2
20240529163040 80 30 6.0 0.0 0.00 0.00 0.26 64 1018.3
20240529162553 80 69 4.0 0.0 0.00 0.00 0.26 64 1018.4
20240529162114 80 46 3.0 0.0 0.00 0.00 0.26 64 1018.4
20240529161614 79 107 3.0 0.0 0.00 0.00 0.26 65 1018.5
20240529160610 79 342 5.0 0.0 0.00 0.00 0.26 68 1018.7
20240529160113 78 347 4.0 0.0 0.00 0.00 0.26 70 1018.7
20240529155628 78 22 5.0 0.0 0.00 0.00 0.26 70 1018.8
20240529155125 77 29 6.0 0.0 0.00 0.00 0.26 72 1018.9
20240529154528 77 60 6.0 0.0 0.00 0.00 0.26 72 1019.0
20240529154041 77 40 6.0 0.0 0.00 0.00 0.26 74 1018.9
20240529153530 77 324 5.0 0.0 0.00 0.00 0.26 75 1018.9
20240529153048 76 334 5.0 0.0 0.00 0.00 0.26 76 1018.9
20240529151620 76 24 4.0 0.0 0.00 0.00 0.26 76 1019.1
20240529151147 75 20 4.0 0.0 0.00 0.00 0.26 77 1019.1
20240529150529 75 329 4.0 0.0 0.00 0.00 0.26 79 1019.0
20240529150124 75 97 4.0 0.0 0.00 0.00 0.26 80 1019.0
20240529145108 74 69 5.0 0.0 0.00 0.00 0.26 82 1019.1
20240529144616 74 73 5.0 0.0 0.00 0.00 0.26 82 1018.9
20240529144033 74 67 4.0 0.0 0.00 0.00 0.26 82 1018.7
20240529143555 74 84 3.0 0.0 0.00 0.00 0.26 82 1018.9
20240529143103 74 74 2.0 0.0 0.00 0.00 0.26 83 1019.0
20240529142556 74 99 1.0 0.0 0.00 0.00 0.26 83 1019.1
20240529142113 73 115 0.0 0.0 0.00 0.00 0.26 84 1019.2
20240529141600 73 101 1.0 0.0 0.00 0.00 0.26 85 1019.3
20240529141055 73 76 1.0 0.0 0.00 0.00 0.26 86 1019.5
20240529140609 72 157 1.0 0.0 0.00 0.00 0.26 86 1019.5
20240529140049 72 90 1.0 0.0 0.00 0.00 0.26 87 1019.5
20240529135600 71 33 2.0 0.0 0.00 0.00 0.26 88 1019.5
20240529135108 71 72 2.0 0.0 0.00 0.00 0.26 88 1019.5
20240529134552 71 50 2.0 0.0 0.00 0.00 0.26 89 1019.6
20240529134054 70 355 3.0 0.0 0.00 0.00 0.26 89 1019.8
20240529133529 70 355 3.0 0.0 0.00 0.00 0.26 89 1019.9
20240529133115 70 284 3.0 0.0 0.00 0.00 0.26 90 1019.9
20240529132610 70 289 3.0 0.0 0.00 0.00 0.26 90 1019.9
20240529132029 69 299 4.0 0.0 0.00 0.00 0.26 90 1019.9
20240529131628 69 301 4.0 0.0 0.00 0.00 0.26 90 1019.9
20240529131123 69 284 4.0 0.0 0.00 0.00 0.26 91 1019.9
20240529130559 69 308 4.0 0.0 0.00 0.00 0.26 91 1019.6
20240529130149 69 310 4.0 0.0 0.00 0.00 0.26 91 1019.6
20240529125543 68 303 4.0 0.0 0.00 0.00 0.26 91 1019.7
20240529125056 68 281 4.0 0.0 0.00 0.00 0.26 91 1019.6
20240529124552 68 317 3.0 0.0 0.00 0.00 0.26 91 1019.7
20240529124043 68 310 1.0 0.0 0.00 0.00 0.26 91 1019.8
20240529123637 68 304 1.0 0.0 0.00 0.00 0.26 91 1019.7
20240529123116 67 244 2.0 0.0 0.00 0.00 0.26 90 1019.8
20240529122540 67 303 3.0 0.0 0.00 0.00 0.26 90 1019.9
20240529122053 67 309 5.0 0.0 0.00 0.00 0.26 90 1019.8
20240529121605 67 286 3.0 0.0 0.00 0.00 0.26 90 1020.0
20240529121037 67 294 1.0 0.0 0.00 0.00 0.26 89 1020.0
20240529120530 67 293 2.0 0.0 0.00 0.00 0.26 89 1020.1
20240529120119 67 242 2.0 0.0 0.00 0.00 0.26 89 1020.2
20240529115541 67 229 1.0 0.0 0.00 0.00 0.26 89 1020.3
20240529115053 67 294 1.0 0.0 0.00 0.00 0.26 88 1020.1
20240529114123 68 244 0.0 0.0 0.00 0.00 0.26 88 1019.8
20240529113607 68 259 0.0 0.0 0.00 0.00 0.26 87 1019.7
20240529113048 68 282 0.0 0.0 0.00 0.00 0.26 87 1019.7
20240529112538 68 298 0.0 0.0 0.00 0.00 0.26 87 1019.6
20240529112129 68 252 0.0 0.0 0.00 0.00 0.26 87 1019.6
20240529111621 68 273 1.0 0.0 0.00 0.00 0.26 86 1019.5
20240529111128 68 281 3.0 0.0 0.00 0.00 0.26 86 1019.2
20240529110559 68 304 3.0 0.0 0.00 0.00 0.26 85 1018.8
20240529110029 68 304 2.0 0.0 0.00 0.00 0.26 84 1018.7
20240529105530 68 265 2.0 0.0 0.00 0.00 0.26 83 1018.5
20240529105053 69 286 2.0 0.0 0.00 0.00 0.26 82 1018.5
20240529104034 69 265 4.0 0.0 0.00 0.00 0.26 82 1018.4
20240529103532 69 233 5.0 0.0 0.00 0.00 0.26 82 1017.8
20240529103135 69 326 5.0 0.0 0.00 0.00 0.26 82 1017.6
20240529102605 69 311 4.0 0.0 0.00 0.00 0.26 81 1017.5
20240529102036 69 285 3.0 0.0 0.00 0.00 0.26 81 1017.3
20240529101624 69 283 4.0 0.0 0.00 0.00 0.26 81 1017.1
20240529101115 69 290 8.0 0.0 0.00 0.00 0.26 80 1016.8
20240529100115 70 284 2.0 0.0 0.00 0.00 0.26 78 1016.4
20240529095116 70 17 1.0 0.0 0.00 0.00 0.26 77 1015.5
20240529094607 70 153 2.0 0.0 0.00 0.00 0.26 76 1015.4
20240529094109 71 172 4.0 0.0 0.00 0.00 0.26 77 1015.1
20240529093612 70 57 7.0 0.0 0.00 0.00 0.26 77 1015.2
20240529093101 70 130 11.0 0.0 0.00 0.00 0.26 78 1015.0
20240529092604 70 182 13.0 0.0 0.00 0.00 0.26 81 1014.6
20240529092052 69 167 13.0 0.0 0.00 0.00 0.26 83 1014.3
20240529091543 69 175 14.0 0.0 0.00 0.00 0.26 86 1014.2
20240529090629 68 126 10.0 0.0 0.00 0.00 0.26 90 1014.5
20240529090058 67 184 6.0 0.0 0.00 0.00 0.26 91 1015.0
20240529085117 67 166 3.0 0.0 0.00 0.00 0.26 93 1016.4
20240529084557 67 153 3.0 0.0 0.00 0.00 0.26 93 1016.9
20240529084111 67 155 2.0 0.0 0.00 0.00 0.26 93 1016.9
20240529083603 67 184 2.0 0.0 0.00 0.00 0.26 93 1017.0
20240529083057 67 184 3.0 0.0 0.00 0.00 0.26 93 1017.1
20240529082028 67 189 2.0 0.0 0.00 0.00 0.26 92 1016.7
20240529081530 67 230 3.0 0.0 0.00 0.00 0.26 92 1016.7
20240529081029 67 295 4.0 0.0 0.00 0.00 0.26 92 1016.7
20240529080528 67 286 3.0 0.0 0.00 0.00 0.26 92 1016.8
20240529080120 67 304 1.0 0.0 0.00 0.00 0.26 92 1017.0
20240529075540 67 11 1.0 0.0 0.00 0.00 0.26 92 1017.2
20240529075121 67 50 1.0 0.0 0.00 0.00 0.26 92 1017.5
20240529074607 68 32 3.0 0.0 0.00 0.00 0.26 92 1017.8
20240529074114 68 355 4.0 0.0 0.00 0.00 0.26 92 1018.0
20240529073623 68 329 4.0 0.0 0.00 0.00 0.25 92 1017.9
20240529073132 68 355 3.0 0.0 0.00 0.00 0.24 92 1017.9
20240529072028 68 163 3.0 0.0 0.00 0.00 0.22 91 1018.4
20240529071624 68 116 6.0 0.0 0.00 0.00 0.21 91 1018.4
20240529070532 68 65 4.0 0.0 0.00 0.00 0.17 90 1018.6
20240529070044 68 120 3.0 0.0 0.00 0.00 0.16 90 1018.8
20240529065528 69 93 3.0 0.0 0.00 0.00 0.15 89 1019.1
20240529065108 69 148 3.0 0.0 0.00 0.00 0.15 89 1019.4
20240529064547 69 153 3.0 0.0 0.00 0.00 0.14 89 1019.8
20240529064059 69 161 4.0 0.0 0.00 0.00 0.12 89 1020.2
20240529063547 69 161 6.0 0.0 0.00 0.00 0.11 89 1020.4
20240529063043 70 255 6.0 0.0 0.00 0.00 0.10 89 1020.4
20240529062535 70 245 4.0 0.0 0.00 0.00 0.09 89 1020.6
20240529062027 70 201 3.0 0.0 0.00 0.00 0.09 89 1020.5
20240529061543 71 209 3.0 0.0 0.00 0.00 0.09 88 1020.8
20240529061035 71 205 2.0 0.0 0.00 0.00 0.08 88 1020.8
20240529060544 71 207 1.0 0.0 0.00 0.00 0.08 88 1021.0
20240529060049 71 202 0.0 0.0 0.00 0.00 0.08 87 1021.0
20240529055549 72 202 0.0 0.0 0.00 0.00 0.08 86 1021.1
20240529055048 72 202 0.0 0.0 0.00 0.00 0.08 86 1021.0
20240529054549 72 202 0.0 0.0 0.00 0.00 0.07 86 1021.3
20240529054028 72 202 2.0 0.0 0.00 0.00 0.06 85 1021.5
20240529053541 72 202 2.0 0.0 0.00 0.00 0.04 85 1021.7
20240529053039 72 222 1.0 0.0 0.00 0.00 0.01 84 1021.8
20240529052554 72 194 0.0 0.0 0.00 0.00 0.00 83 1021.8
20240529052041 72 259 0.0 0.0 0.00 0.00 0.00 83 1021.5
20240529051530 72 259 1.0 0.0 0.00 0.00 0.00 83 1021.4
20240529051027 72 302 3.0 0.0 0.00 0.00 0.00 83 1021.1
20240529050543 72 355 4.0 0.0 0.00 0.00 0.00 83 1020.8
20240529050048 72 360 5.0 0.0 0.00 0.00 1.16 83 1020.5
20240529045615 72 9 5.0 0.0 0.00 0.00 1.16 83 1020.3
20240529045048 73 14 5.0 0.0 0.00 0.00 1.16 82 1020.2
20240529044607 73 18 6.0 0.0 0.00 0.00 1.16 82 1020.4
20240529044046 73 70 7.0 0.0 0.00 0.00 1.16 81 1020.5
20240529043558 73 346 8.0 0.0 0.00 0.00 1.16 81 1020.6
20240529043100 73 39 7.0 0.0 0.00 0.00 1.16 81 1020.7
20240529042615 73 52 6.0 0.0 0.00 0.00 1.16 82 1020.6
20240529041530 73 355 7.0 0.0 0.00 0.00 1.16 82 1020.5
20240529041030 73 360 7.0 0.0 0.00 0.00 1.16 82 1020.2
20240529040536 72 12 8.0 0.0 0.00 0.00 1.16 83 1019.8
20240529040116 72 17 8.0 0.0 0.00 0.00 1.16 83 1019.7
20240529035115 72 350 5.0 0.0 0.00 0.00 1.16 83 1019.1
20240529035021 72 342 5.0 0.0 0.00 0.00 1.16 84 1018.8
20240529033023 72 37 4.0 0.0 0.00 0.00 1.16 83 1017.7
20240529030956 72 39 0.0 0.0 0.00 0.00 1.16 83 1016.9
20240529024342 73 87 1.0 0.0 0.00 0.00 1.16 81 1016.4